Year,Month,Day,Hour,Minute,Value (Times are PST for windspeed in km/hr)
2021,02,28,00,00,2.10
2021,02,28,00,01,0.00
2021,02,28,00,02,0.00
2021,02,28,00,03,1.00
2021,02,28,00,04,2.60
2021,02,28,00,05,2.90
2021,02,28,00,06,1.30
2021,02,28,00,07,1.40
2021,02,28,00,08,1.50
2021,02,28,00,09,0.00
2021,02,28,00,10,2.30
2021,02,28,00,11,1.60
2021,02,28,00,12,0.70
2021,02,28,00,13,1.10
2021,02,28,00,14,0.10
2021,02,28,00,15,2.90
2021,02,28,00,16,1.30
2021,02,28,00,17,0.30
2021,02,28,00,18,3.60
2021,02,28,00,19,2.70
2021,02,28,00,20,4.20
2021,02,28,00,21,3.80
2021,02,28,00,22,1.00
2021,02,28,00,23,1.90
2021,02,28,00,24,5.20
2021,02,28,00,25,3.50
2021,02,28,00,26,2.80
2021,02,28,00,27,0.50
2021,02,28,00,28,2.10
2021,02,28,00,29,3.50
2021,02,28,00,30,5.10
2021,02,28,00,31,4.60
2021,02,28,00,32,4.70
2021,02,28,00,33,5.50
2021,02,28,00,34,5.40
2021,02,28,00,35,2.00
2021,02,28,00,36,3.20
2021,02,28,00,37,1.40
2021,02,28,00,38,1.40
2021,02,28,00,39,3.20
2021,02,28,00,40,3.40
2021,02,28,00,41,1.40
2021,02,28,00,42,2.90
2021,02,28,00,43,3.60
2021,02,28,00,44,4.50
2021,02,28,00,45,2.40
2021,02,28,00,46,2.90
2021,02,28,00,47,2.20
2021,02,28,00,48,2.10
2021,02,28,00,49,5.20
2021,02,28,00,50,6.70
2021,02,28,00,51,4.00
2021,02,28,00,52,3.00
2021,02,28,00,53,3.30
2021,02,28,00,54,3.10
2021,02,28,00,55,8.60
2021,02,28,00,56,5.80
2021,02,28,00,57,3.20
2021,02,28,00,58,3.50
2021,02,28,00,59,3.40
2021,02,28,01,00,5.00
2021,02,28,01,01,4.80
2021,02,28,01,02,4.60
2021,02,28,01,03,4.50
2021,02,28,01,04,8.50
2021,02,28,01,05,10.80
2021,02,28,01,06,4.80
2021,02,28,01,07,4.60
2021,02,28,01,08,3.50
2021,02,28,01,09,3.90
2021,02,28,01,10,2.70
2021,02,28,01,11,2.30
2021,02,28,01,12,2.00
2021,02,28,01,13,0.90
2021,02,28,01,14,0.00
2021,02,28,01,15,2.20
2021,02,28,01,16,2.60
2021,02,28,01,17,1.90
2021,02,28,01,18,2.40
2021,02,28,01,19,4.90
2021,02,28,01,20,5.00
2021,02,28,01,21,4.80
2021,02,28,01,22,4.00
2021,02,28,01,23,2.70
2021,02,28,01,24,1.70
2021,02,28,01,25,3.20
2021,02,28,01,26,2.20
2021,02,28,01,27,0.70
2021,02,28,01,28,2.60
2021,02,28,01,29,3.20
2021,02,28,01,30,4.20
2021,02,28,01,31,4.10
2021,02,28,01,32,5.50
2021,02,28,01,33,3.90
2021,02,28,01,34,3.10
2021,02,28,01,35,3.20
2021,02,28,01,36,3.80
2021,02,28,01,37,3.00
2021,02,28,01,38,3.00
2021,02,28,01,39,2.70
2021,02,28,01,40,2.50
2021,02,28,01,41,1.90
2021,02,28,01,42,3.30
2021,02,28,01,43,2.80
2021,02,28,01,44,3.30
2021,02,28,01,45,2.40
2021,02,28,01,46,3.50
2021,02,28,01,47,4.50
2021,02,28,01,48,4.80
2021,02,28,01,49,4.90
2021,02,28,01,50,3.40
2021,02,28,01,51,2.70
2021,02,28,01,52,2.00
2021,02,28,01,53,3.20
2021,02,28,01,54,2.90
2021,02,28,01,55,2.90
2021,02,28,01,56,2.20
2021,02,28,01,57,3.20
2021,02,28,01,58,2.30
2021,02,28,01,59,3.40
2021,02,28,02,00,3.00
2021,02,28,02,01,2.70
2021,02,28,02,02,4.50
2021,02,28,02,03,3.10
2021,02,28,02,04,4.00
2021,02,28,02,05,2.90
2021,02,28,02,06,4.40
2021,02,28,02,07,3.80
2021,02,28,02,08,3.00
2021,02,28,02,09,2.00
2021,02,28,02,10,2.90
2021,02,28,02,11,3.30
2021,02,28,02,12,2.30
2021,02,28,02,13,3.90
2021,02,28,02,14,4.90
2021,02,28,02,15,6.40
2021,02,28,02,16,6.10
2021,02,28,02,17,3.50
2021,02,28,02,18,2.00
2021,02,28,02,19,2.70
2021,02,28,02,20,4.30
2021,02,28,02,21,4.00
2021,02,28,02,22,3.50
2021,02,28,02,23,2.50
2021,02,28,02,24,4.20
2021,02,28,02,25,4.00
2021,02,28,02,26,5.10
2021,02,28,02,27,7.40
2021,02,28,02,28,6.30
2021,02,28,02,29,4.80
2021,02,28,02,30,3.10
2021,02,28,02,31,3.90
2021,02,28,02,32,3.20
2021,02,28,02,33,3.70
2021,02,28,02,34,2.10
2021,02,28,02,35,1.70
2021,02,28,02,36,1.30
2021,02,28,02,37,4.80
2021,02,28,02,38,3.30
2021,02,28,02,39,1.70
2021,02,28,02,40,3.20
2021,02,28,02,41,2.30
2021,02,28,02,42,1.60
2021,02,28,02,43,2.50
2021,02,28,02,44,3.10
2021,02,28,02,45,3.90
2021,02,28,02,46,4.00
2021,02,28,02,47,4.40
2021,02,28,02,48,4.90
2021,02,28,02,49,3.90
2021,02,28,02,50,3.00
2021,02,28,02,51,2.80
2021,02,28,02,52,3.00
2021,02,28,02,53,2.00
2021,02,28,02,54,3.00
2021,02,28,02,55,4.10
2021,02,28,02,56,2.60
2021,02,28,02,57,3.50
2021,02,28,02,58,4.20
2021,02,28,02,59,4.80
2021,02,28,03,00,3.40
2021,02,28,03,01,3.50
2021,02,28,03,02,3.30
2021,02,28,03,03,4.50
2021,02,28,03,04,1.70
2021,02,28,03,05,2.70
2021,02,28,03,06,3.20
2021,02,28,03,07,2.60
2021,02,28,03,08,2.30
2021,02,28,03,09,1.20
2021,02,28,03,10,2.40
2021,02,28,03,11,2.00
2021,02,28,03,12,0.50
2021,02,28,03,13,1.70
2021,02,28,03,14,2.50
2021,02,28,03,15,4.30
2021,02,28,03,16,3.00
2021,02,28,03,17,3.70
2021,02,28,03,18,3.20
2021,02,28,03,19,2.00
2021,02,28,03,20,2.00
2021,02,28,03,21,1.60
2021,02,28,03,22,3.40
2021,02,28,03,23,2.40
2021,02,28,03,24,2.60
2021,02,28,03,25,3.70
2021,02,28,03,26,3.00
2021,02,28,03,27,2.20
2021,02,28,03,28,1.80
2021,02,28,03,29,0.00
2021,02,28,03,30,2.10
2021,02,28,03,31,0.50
2021,02,28,03,32,0.60
2021,02,28,03,33,1.10
2021,02,28,03,34,0.60
2021,02,28,03,35,0.00
2021,02,28,03,36,0.00
2021,02,28,03,37,0.70
2021,02,28,03,38,0.80
2021,02,28,03,39,0.00
2021,02,28,03,40,0.00
2021,02,28,03,41,0.00
2021,02,28,03,42,0.00
2021,02,28,03,43,0.30
2021,02,28,03,44,1.20
2021,02,28,03,45,0.00
2021,02,28,03,46,0.80
2021,02,28,03,47,1.60
2021,02,28,03,48,0.00
2021,02,28,03,49,1.50
2021,02,28,03,50,0.80
2021,02,28,03,51,1.30
2021,02,28,03,52,2.10
2021,02,28,03,53,2.60
2021,02,28,03,54,2.80
2021,02,28,03,55,2.60
2021,02,28,03,56,3.30
2021,02,28,03,57,2.50
2021,02,28,03,58,3.50
2021,02,28,03,59,2.70
2021,02,28,04,00,3.20
2021,02,28,04,01,2.60
2021,02,28,04,02,2.20
2021,02,28,04,03,2.30
2021,02,28,04,04,1.20
2021,02,28,04,05,1.00
2021,02,28,04,06,1.10
2021,02,28,04,07,0.00
2021,02,28,04,08,0.00
2021,02,28,04,09,0.40
2021,02,28,04,10,2.40
2021,02,28,04,11,1.90
2021,02,28,04,12,2.70
2021,02,28,04,13,3.00
2021,02,28,04,14,2.70
2021,02,28,04,15,2.70
2021,02,28,04,16,2.90
2021,02,28,04,17,3.20
2021,02,28,04,18,2.90
2021,02,28,04,19,2.20
2021,02,28,04,20,4.10
2021,02,28,04,21,3.00
2021,02,28,04,22,0.70
2021,02,28,04,23,1.00
2021,02,28,04,24,3.10
2021,02,28,04,25,3.00
2021,02,28,04,26,1.70
2021,02,28,04,27,2.10
2021,02,28,04,28,2.80
2021,02,28,04,29,2.60
2021,02,28,04,30,2.80
2021,02,28,04,31,4.90
2021,02,28,04,32,2.60
2021,02,28,04,33,2.10
2021,02,28,04,34,1.10
2021,02,28,04,35,1.50
2021,02,28,04,36,4.10
2021,02,28,04,37,5.00
2021,02,28,04,38,5.10
2021,02,28,04,39,4.70
2021,02,28,04,40,6.50
2021,02,28,04,41,5.10
2021,02,28,04,42,4.20
2021,02,28,04,43,8.60
2021,02,28,04,44,6.90
2021,02,28,04,45,5.70
2021,02,28,04,46,7.50
2021,02,28,04,47,7.20
2021,02,28,04,48,7.00
2021,02,28,04,49,8.20
2021,02,28,04,50,7.20
2021,02,28,04,51,6.80
2021,02,28,04,52,5.90
2021,02,28,04,53,7.30
2021,02,28,04,54,7.90
2021,02,28,04,55,6.70
2021,02,28,04,56,6.00
2021,02,28,04,57,4.90
2021,02,28,04,58,4.60
2021,02,28,04,59,5.20
2021,02,28,05,00,4.40
2021,02,28,05,01,4.00
2021,02,28,05,02,2.10
2021,02,28,05,03,4.30
2021,02,28,05,04,4.50
2021,02,28,05,05,5.20
2021,02,28,05,06,4.40
2021,02,28,05,07,7.00
2021,02,28,05,08,6.50
2021,02,28,05,09,6.10
2021,02,28,05,10,5.50
2021,02,28,05,11,6.00
2021,02,28,05,12,5.90
2021,02,28,05,13,7.00
2021,02,28,05,14,6.10
2021,02,28,05,15,6.30
2021,02,28,05,16,8.00
2021,02,28,05,17,7.90
2021,02,28,05,18,7.10
2021,02,28,05,19,6.40
2021,02,28,05,20,7.50
2021,02,28,05,21,7.50
2021,02,28,05,22,7.50
2021,02,28,05,23,7.00
2021,02,28,05,24,6.80
2021,02,28,05,25,7.10
2021,02,28,05,26,6.10
2021,02,28,05,27,7.50
2021,02,28,05,28,4.80
2021,02,28,05,29,5.50
2021,02,28,05,30,6.40
2021,02,28,05,31,5.30
2021,02,28,05,32,5.80
2021,02,28,05,33,6.40
2021,02,28,05,34,4.50
2021,02,28,05,35,6.90
2021,02,28,05,36,6.90
2021,02,28,05,37,7.10
2021,02,28,05,38,6.90
2021,02,28,05,39,6.40
2021,02,28,05,40,5.90
2021,02,28,05,41,5.60
2021,02,28,05,42,8.00
2021,02,28,05,43,6.70
2021,02,28,05,44,7.40
2021,02,28,05,45,8.50
2021,02,28,05,46,6.40
2021,02,28,05,47,7.50
2021,02,28,05,48,8.60
2021,02,28,05,49,8.40
2021,02,28,05,50,7.50
2021,02,28,05,51,8.50
2021,02,28,05,52,9.60
2021,02,28,05,53,11.30
2021,02,28,05,54,11.10
2021,02,28,05,55,9.30
2021,02,28,05,56,10.40
2021,02,28,05,57,8.80
2021,02,28,05,58,5.50
2021,02,28,05,59,8.90
2021,02,28,06,00,9.50
2021,02,28,06,01,9.70
2021,02,28,06,02,8.70
2021,02,28,06,03,7.90
2021,02,28,06,04,7.80
2021,02,28,06,05,9.70
2021,02,28,06,06,10.70
2021,02,28,06,07,8.60
2021,02,28,06,08,10.00
2021,02,28,06,09,7.30
2021,02,28,06,10,8.50
2021,02,28,06,11,9.00
2021,02,28,06,12,9.30
2021,02,28,06,13,8.20
2021,02,28,06,14,8.10
2021,02,28,06,15,10.00
2021,02,28,06,16,14.40
2021,02,28,06,17,9.80
2021,02,28,06,18,10.60
2021,02,28,06,19,12.90
2021,02,28,06,20,12.80
2021,02,28,06,21,11.40
2021,02,28,06,22,17.10
2021,02,28,06,23,11.40
2021,02,28,06,24,12.90
2021,02,28,06,25,9.20
2021,02,28,06,26,10.50
2021,02,28,06,27,11.60
2021,02,28,06,28,11.60
2021,02,28,06,29,11.60
2021,02,28,06,30,11.60
2021,02,28,06,31,10.90
2021,02,28,06,32,12.80
2021,02,28,06,33,13.20
2021,02,28,06,34,8.20
2021,02,28,06,35,11.60
2021,02,28,06,36,11.00
2021,02,28,06,37,11.70
2021,02,28,06,38,13.80
2021,02,28,06,39,9.50
2021,02,28,06,40,11.30
2021,02,28,06,41,12.30
2021,02,28,06,42,11.00
2021,02,28,06,43,10.20
2021,02,28,06,44,9.00
2021,02,28,06,45,11.40
2021,02,28,06,46,7.60
2021,02,28,06,47,8.50
2021,02,28,06,48,9.90
2021,02,28,06,49,8.80
2021,02,28,06,50,11.00
2021,02,28,06,51,10.40
2021,02,28,06,52,7.60
2021,02,28,06,53,9.80
2021,02,28,06,54,11.30
2021,02,28,06,55,11.30
2021,02,28,06,56,11.10
2021,02,28,06,57,10.70
2021,02,28,06,58,7.90
2021,02,28,06,59,10.90
2021,02,28,07,00,13.80
2021,02,28,07,01,12.00
2021,02,28,07,02,9.80
2021,02,28,07,03,11.40
2021,02,28,07,04,7.90
2021,02,28,07,05,10.90
2021,02,28,07,06,11.30
2021,02,28,07,07,11.30
2021,02,28,07,08,14.70
2021,02,28,07,09,11.40
2021,02,28,07,10,11.30
2021,02,28,07,11,14.20
2021,02,28,07,12,16.90
2021,02,28,07,13,16.00
2021,02,28,07,14,15.30
2021,02,28,07,15,13.30
2021,02,28,07,16,12.50
2021,02,28,07,17,12.50
2021,02,28,07,18,12.50
2021,02,28,07,19,10.70
2021,02,28,07,20,11.80
2021,02,28,07,21,10.90
2021,02,28,07,22,12.30
2021,02,28,07,23,12.70
2021,02,28,07,24,12.60
2021,02,28,07,25,10.50
2021,02,28,07,26,12.30
2021,02,28,07,27,14.00
2021,02,28,07,28,11.90
2021,02,28,07,29,13.30
2021,02,28,07,30,13.60
2021,02,28,07,31,14.90
2021,02,28,07,32,16.70
2021,02,28,07,33,18.50
2021,02,28,07,34,15.60
2021,02,28,07,35,11.70
2021,02,28,07,36,14.40
2021,02,28,07,37,14.20
2021,02,28,07,38,13.20
2021,02,28,07,39,12.90
2021,02,28,07,40,14.40
2021,02,28,07,41,13.10
2021,02,28,07,42,13.10
2021,02,28,07,43,14.30
2021,02,28,07,44,16.30
2021,02,28,07,45,14.60
2021,02,28,07,46,13.60
2021,02,28,07,47,14.80
2021,02,28,07,48,14.80
2021,02,28,07,49,11.20
2021,02,28,07,50,12.60
2021,02,28,07,51,13.00
2021,02,28,07,52,11.50
2021,02,28,07,53,9.60
2021,02,28,07,54,10.60
2021,02,28,07,55,8.30
2021,02,28,07,56,11.00
2021,02,28,07,57,14.50
2021,02,28,07,58,13.20
2021,02,28,07,59,14.70
2021,02,28,08,00,15.60
2021,02,28,08,01,15.30
2021,02,28,08,02,13.80
2021,02,28,08,03,13.60
2021,02,28,08,04,10.50
2021,02,28,08,05,13.50
2021,02,28,08,06,11.50
2021,02,28,08,07,11.70
2021,02,28,08,08,10.40
2021,02,28,08,09,11.50
2021,02,28,08,10,15.90
2021,02,28,08,11,16.30
2021,02,28,08,12,15.90
2021,02,28,08,13,12.50
2021,02,28,08,14,14.20
2021,02,28,08,15,13.60
2021,02,28,08,16,11.50
2021,02,28,08,17,8.90
2021,02,28,08,18,11.90
2021,02,28,08,19,13.70
2021,02,28,08,20,12.30
2021,02,28,08,21,11.90
2021,02,28,08,22,14.60
2021,02,28,08,23,13.70
2021,02,28,08,24,11.00
2021,02,28,08,25,13.90
2021,02,28,08,26,14.50
2021,02,28,08,27,14.50
2021,02,28,08,28,14.10
2021,02,28,08,29,15.30
2021,02,28,08,30,14.40
2021,02,28,08,31,16.10
2021,02,28,08,32,15.70
2021,02,28,08,33,12.80
2021,02,28,08,34,14.20
2021,02,28,08,35,14.90
2021,02,28,08,36,13.60
2021,02,28,08,37,14.20
2021,02,28,08,38,13.80
2021,02,28,08,39,15.10
2021,02,28,08,40,12.90
2021,02,28,08,41,13.60
2021,02,28,08,42,11.70
2021,02,28,08,43,13.50
2021,02,28,08,44,11.50
2021,02,28,08,45,12.10
2021,02,28,08,46,12.10
2021,02,28,08,47,11.00
2021,02,28,08,48,9.90
2021,02,28,08,49,13.80
2021,02,28,08,50,14.10
2021,02,28,08,51,11.40
2021,02,28,08,52,12.40
2021,02,28,08,53,13.20
2021,02,28,08,54,14.00
2021,02,28,08,55,11.40
2021,02,28,08,56,13.10
2021,02,28,08,57,12.80
2021,02,28,08,58,12.10
2021,02,28,08,59,12.50
2021,02,28,09,00,11.30
2021,02,28,09,01,13.90
2021,02,28,09,02,12.80
2021,02,28,09,03,11.20
2021,02,28,09,04,11.60
2021,02,28,09,05,12.20
2021,02,28,09,06,11.90
2021,02,28,09,07,9.50
2021,02,28,09,08,12.80
2021,02,28,09,09,15.10
2021,02,28,09,10,10.90
2021,02,28,09,11,8.80
2021,02,28,09,12,10.30
2021,02,28,09,13,9.40
2021,02,28,09,14,9.10
2021,02,28,09,15,10.50
2021,02,28,09,16,10.80
2021,02,28,09,17,10.30
2021,02,28,09,18,8.00
2021,02,28,09,19,11.70
2021,02,28,09,20,10.00
2021,02,28,09,21,9.10
2021,02,28,09,22,11.70
2021,02,28,09,23,11.20
2021,02,28,09,24,13.60
2021,02,28,09,25,16.00
2021,02,28,09,26,11.40
2021,02,28,09,27,13.50
2021,02,28,09,28,11.10
2021,02,28,09,29,12.70
2021,02,28,09,30,14.40
2021,02,28,09,31,13.40
2021,02,28,09,32,15.30
2021,02,28,09,33,15.60
2021,02,28,09,34,13.10
2021,02,28,09,35,10.70
2021,02,28,09,36,11.20
2021,02,28,09,37,11.60
2021,02,28,09,38,13.00
2021,02,28,09,39,12.90
2021,02,28,09,40,14.10
2021,02,28,09,41,10.50
2021,02,28,09,42,11.10
2021,02,28,09,43,12.80
2021,02,28,09,44,14.50
2021,02,28,09,45,12.10
2021,02,28,09,46,11.40
2021,02,28,09,47,11.20
2021,02,28,09,48,10.10
2021,02,28,09,49,9.80
2021,02,28,09,50,10.80
2021,02,28,09,51,11.60
2021,02,28,09,52,10.70
2021,02,28,09,53,14.50
2021,02,28,09,54,11.80
2021,02,28,09,55,13.30
2021,02,28,09,56,12.40
2021,02,28,09,57,14.20
2021,02,28,09,58,12.50
2021,02,28,09,59,10.80
2021,02,28,10,00,8.40
2021,02,28,10,01,14.20
2021,02,28,10,02,12.50
2021,02,28,10,03,12.10
2021,02,28,10,04,13.70
2021,02,28,10,05,12.80
2021,02,28,10,06,12.60
2021,02,28,10,07,11.80
2021,02,28,10,08,12.80
2021,02,28,10,09,15.30
2021,02,28,10,10,14.20
2021,02,28,10,11,12.50
2021,02,28,10,12,11.70
2021,02,28,10,13,11.30
2021,02,28,10,14,10.70
2021,02,28,10,15,9.80
2021,02,28,10,16,12.00
2021,02,28,10,17,11.30
2021,02,28,10,18,8.60
2021,02,28,10,19,12.90
2021,02,28,10,20,14.10
2021,02,28,10,21,16.70
2021,02,28,10,22,12.70
2021,02,28,10,23,12.20
2021,02,28,10,24,13.00
2021,02,28,10,25,14.20
2021,02,28,10,26,11.70
2021,02,28,10,27,13.60
2021,02,28,10,28,15.00
2021,02,28,10,29,13.00
2021,02,28,10,30,13.40
2021,02,28,10,31,11.40
2021,02,28,10,32,13.70
2021,02,28,10,33,12.00
2021,02,28,10,34,12.80
2021,02,28,10,35,12.20
2021,02,28,10,36,11.60
2021,02,28,10,37,13.80
2021,02,28,10,38,13.40
2021,02,28,10,39,13.90
2021,02,28,10,40,12.00
2021,02,28,10,41,11.90
2021,02,28,10,42,13.80
2021,02,28,10,43,12.60
2021,02,28,10,44,13.40
2021,02,28,10,45,12.80
2021,02,28,10,46,13.20
2021,02,28,10,47,11.40
2021,02,28,10,48,11.90
2021,02,28,10,49,12.00
2021,02,28,10,50,12.60
2021,02,28,10,51,13.10
2021,02,28,10,52,15.30
2021,02,28,10,53,10.70
2021,02,28,10,54,13.40
2021,02,28,10,55,15.20
2021,02,28,10,56,14.80
2021,02,28,10,57,12.50
2021,02,28,10,58,15.40
2021,02,28,10,59,11.60
2021,02,28,11,00,10.90
2021,02,28,11,01,11.00
2021,02,28,11,02,9.90
2021,02,28,11,03,13.20
2021,02,28,11,04,13.90
2021,02,28,11,05,12.60
2021,02,28,11,06,11.90
2021,02,28,11,07,13.10
2021,02,28,11,08,13.90
2021,02,28,11,09,12.40
2021,02,28,11,10,13.70
2021,02,28,11,11,16.70
2021,02,28,11,12,15.10
2021,02,28,11,13,14.70
2021,02,28,11,14,13.90
2021,02,28,11,15,15.30
2021,02,28,11,16,17.10
2021,02,28,11,17,15.40
2021,02,28,11,18,16.40
2021,02,28,11,19,13.70
2021,02,28,11,20,14.90
2021,02,28,11,21,15.70
2021,02,28,11,22,13.00
2021,02,28,11,23,16.60
2021,02,28,11,24,14.50
2021,02,28,11,25,14.70
2021,02,28,11,26,15.70
2021,02,28,11,27,15.10
2021,02,28,11,28,14.90
2021,02,28,11,29,16.90
2021,02,28,11,30,16.20
2021,02,28,11,31,16.40
2021,02,28,11,32,19.30
2021,02,28,11,33,19.80
2021,02,28,11,34,19.50
2021,02,28,11,35,16.40
2021,02,28,11,36,15.80
2021,02,28,11,37,13.90
2021,02,28,11,38,13.00
2021,02,28,11,39,14.10
2021,02,28,11,40,16.20
2021,02,28,11,41,16.50
2021,02,28,11,42,16.00
2021,02,28,11,43,15.80
2021,02,28,11,44,15.40
2021,02,28,11,45,13.80
2021,02,28,11,46,13.90
2021,02,28,11,47,15.30
2021,02,28,11,48,15.90
2021,02,28,11,49,13.70
2021,02,28,11,50,18.40
2021,02,28,11,51,14.20
2021,02,28,11,52,12.90
2021,02,28,11,53,17.70
2021,02,28,11,54,15.40
2021,02,28,11,55,14.20
2021,02,28,11,56,15.50
2021,02,28,11,57,16.90
2021,02,28,11,58,18.20
2021,02,28,11,59,14.80
2021,02,28,12,00,15.90
2021,02,28,12,01,16.80
2021,02,28,12,02,16.00
2021,02,28,12,03,15.30
2021,02,28,12,04,16.60
2021,02,28,12,05,19.30
2021,02,28,12,06,15.00
2021,02,28,12,07,15.50
2021,02,28,12,08,14.80
2021,02,28,12,09,16.20
2021,02,28,12,10,17.10
2021,02,28,12,11,18.40
2021,02,28,12,12,17.90
2021,02,28,12,13,15.10
2021,02,28,12,14,15.80
2021,02,28,12,15,18.70
2021,02,28,12,16,15.90
2021,02,28,12,17,17.90
2021,02,28,12,18,17.10
2021,02,28,12,19,17.50
2021,02,28,12,20,20.30
2021,02,28,12,21,17.90
2021,02,28,12,22,18.60
2021,02,28,12,23,15.80
2021,02,28,12,24,21.30
2021,02,28,12,25,16.50
2021,02,28,12,26,18.10
2021,02,28,12,27,16.60
2021,02,28,12,28,20.00
2021,02,28,12,29,17.90
2021,02,28,12,30,23.40
2021,02,28,12,31,16.80
2021,02,28,12,32,15.50
2021,02,28,12,33,16.50
2021,02,28,12,34,19.90
2021,02,28,12,35,17.40
2021,02,28,12,36,17.40
2021,02,28,12,37,16.30
2021,02,28,12,38,18.40
2021,02,28,12,39,20.60
2021,02,28,12,40,20.00
2021,02,28,12,41,17.40
2021,02,28,12,42,14.60
2021,02,28,12,43,19.10
2021,02,28,12,44,16.90
2021,02,28,12,45,17.10
2021,02,28,12,46,16.60
2021,02,28,12,47,17.90
2021,02,28,12,48,18.10
2021,02,28,12,49,16.60
2021,02,28,12,50,14.70
2021,02,28,12,51,16.50
2021,02,28,12,52,15.10
2021,02,28,12,53,14.50
2021,02,28,12,54,15.90
2021,02,28,12,55,13.50
2021,02,28,12,56,13.60
2021,02,28,12,57,16.70
2021,02,28,12,58,14.40
2021,02,28,12,59,14.30
2021,02,28,13,00,15.60
2021,02,28,13,01,15.10
2021,02,28,13,02,16.60
2021,02,28,13,03,11.80
2021,02,28,13,04,14.70
2021,02,28,13,05,12.20
2021,02,28,13,06,14.80
2021,02,28,13,07,17.20
2021,02,28,13,08,17.20
2021,02,28,13,09,13.00
2021,02,28,13,10,17.40
2021,02,28,13,11,18.10
2021,02,28,13,12,18.20
2021,02,28,13,13,14.70
2021,02,28,13,14,19.40
2021,02,28,13,15,15.40
2021,02,28,13,16,15.10
2021,02,28,13,17,15.50
2021,02,28,13,18,16.10
2021,02,28,13,19,14.60
2021,02,28,13,20,16.90
2021,02,28,13,21,18.00
2021,02,28,13,22,16.90
2021,02,28,13,23,14.90
2021,02,28,13,24,16.30
2021,02,28,13,25,15.10
2021,02,28,13,26,17.80
2021,02,28,13,27,16.00
2021,02,28,13,28,14.50
2021,02,28,13,29,14.20
2021,02,28,13,30,15.60
2021,02,28,13,31,16.30
2021,02,28,13,32,17.50
2021,02,28,13,33,16.30
2021,02,28,13,34,16.80
2021,02,28,13,35,15.90
2021,02,28,13,36,14.60
2021,02,28,13,37,16.60
2021,02,28,13,38,15.20
2021,02,28,13,39,14.40
2021,02,28,13,40,13.70
2021,02,28,13,41,15.20
2021,02,28,13,42,16.00
2021,02,28,13,43,13.80
2021,02,28,13,44,12.30
2021,02,28,13,45,12.80
2021,02,28,13,46,12.90
2021,02,28,13,47,14.90
2021,02,28,13,48,14.00
2021,02,28,13,49,14.10
2021,02,28,13,50,17.00
2021,02,28,13,51,14.50
2021,02,28,13,52,17.80
2021,02,28,13,53,12.80
2021,02,28,13,54,16.80
2021,02,28,13,55,14.30
2021,02,28,13,56,12.40
2021,02,28,13,57,14.10
2021,02,28,13,58,14.50
2021,02,28,13,59,15.60
2021,02,28,14,00,17.70
2021,02,28,14,01,15.70
2021,02,28,14,02,14.10
2021,02,28,14,03,13.40
2021,02,28,14,04,12.90
2021,02,28,14,05,13.80
2021,02,28,14,06,13.80
2021,02,28,14,07,14.40
2021,02,28,14,08,13.90
2021,02,28,14,09,14.90
2021,02,28,14,10,14.80
2021,02,28,14,11,13.10
2021,02,28,14,12,14.20
2021,02,28,14,13,13.80
2021,02,28,14,14,15.50
2021,02,28,14,15,14.80
2021,02,28,14,16,13.20
2021,02,28,14,17,14.50
2021,02,28,14,18,17.70
2021,02,28,14,19,14.10
2021,02,28,14,20,15.40
2021,02,28,14,21,15.00
2021,02,28,14,22,14.20
2021,02,28,14,23,14.50
2021,02,28,14,24,17.50
2021,02,28,14,25,14.00
2021,02,28,14,26,16.40
2021,02,28,14,27,12.60
2021,02,28,14,28,11.30
2021,02,28,14,29,10.80
2021,02,28,14,30,14.20
2021,02,28,14,31,12.80
2021,02,28,14,32,14.20
2021,02,28,14,33,16.30
2021,02,28,14,34,14.30
2021,02,28,14,35,13.50
2021,02,28,14,36,14.90
2021,02,28,14,37,12.90
2021,02,28,14,38,16.50
2021,02,28,14,39,16.40
2021,02,28,14,40,15.20
2021,02,28,14,41,13.40
2021,02,28,14,42,16.70
2021,02,28,14,43,13.50
2021,02,28,14,44,14.50
2021,02,28,14,45,11.90
2021,02,28,14,46,11.90
2021,02,28,14,47,11.40
2021,02,28,14,48,13.60
2021,02,28,14,49,14.80
2021,02,28,14,50,13.40
2021,02,28,14,51,17.90
2021,02,28,14,52,14.60
2021,02,28,14,53,12.30
2021,02,28,14,54,13.50
2021,02,28,14,55,11.90
2021,02,28,14,56,12.40
2021,02,28,14,57,12.90
2021,02,28,14,58,13.80
2021,02,28,14,59,12.50
2021,02,28,15,00,13.30
2021,02,28,15,01,13.10
2021,02,28,15,02,11.80
2021,02,28,15,03,12.20
2021,02,28,15,04,14.50
2021,02,28,15,05,14.10
2021,02,28,15,06,15.10
2021,02,28,15,07,13.60
2021,02,28,15,08,15.90
2021,02,28,15,09,14.30
2021,02,28,15,10,11.20
2021,02,28,15,11,16.00
2021,02,28,15,12,13.40
2021,02,28,15,13,12.40
2021,02,28,15,14,14.50
2021,02,28,15,15,13.60
2021,02,28,15,16,13.80
2021,02,28,15,17,12.90
2021,02,28,15,18,13.10
2021,02,28,15,19,14.80
2021,02,28,15,20,14.60
2021,02,28,15,21,14.20
2021,02,28,15,22,12.50
2021,02,28,15,23,14.30
2021,02,28,15,24,17.60
2021,02,28,15,25,15.50
2021,02,28,15,26,16.00
2021,02,28,15,27,16.60
2021,02,28,15,28,13.90
2021,02,28,15,29,13.30
2021,02,28,15,30,14.70
2021,02,28,15,31,14.80
2021,02,28,15,32,14.30
2021,02,28,15,33,13.60
2021,02,28,15,34,16.40
2021,02,28,15,35,14.70
2021,02,28,15,36,14.20
2021,02,28,15,37,12.10
2021,02,28,15,38,12.90
2021,02,28,15,39,13.30
2021,02,28,15,40,12.40
2021,02,28,15,41,11.50
2021,02,28,15,42,12.20
2021,02,28,15,43,13.40
2021,02,28,15,44,13.80
2021,02,28,15,45,10.80
2021,02,28,15,46,13.20
2021,02,28,15,47,11.80
2021,02,28,15,48,9.80
2021,02,28,15,49,11.20
2021,02,28,15,50,10.80
2021,02,28,15,51,11.30
2021,02,28,15,52,12.70
2021,02,28,15,53,11.80
2021,02,28,15,54,11.40
2021,02,28,15,55,13.20
2021,02,28,15,56,10.90
2021,02,28,15,57,12.30
2021,02,28,15,58,9.10
2021,02,28,15,59,12.00
2021,02,28,16,00,11.30
2021,02,28,16,01,11.10
2021,02,28,16,02,14.60
2021,02,28,16,03,14.50
2021,02,28,16,04,14.50
2021,02,28,16,05,14.20
2021,02,28,16,06,12.60
2021,02,28,16,07,13.70
2021,02,28,16,08,10.00
2021,02,28,16,09,11.20
2021,02,28,16,10,12.10
2021,02,28,16,11,13.30
2021,02,28,16,12,10.00
2021,02,28,16,13,12.00
2021,02,28,16,14,13.30
2021,02,28,16,15,11.50
2021,02,28,16,16,10.90
2021,02,28,16,17,12.90
2021,02,28,16,18,13.90
2021,02,28,16,19,12.80
2021,02,28,16,20,11.00
2021,02,28,16,21,11.10
2021,02,28,16,22,10.60
2021,02,28,16,23,13.20
2021,02,28,16,24,15.50
2021,02,28,16,25,12.30
2021,02,28,16,26,13.00
2021,02,28,16,27,11.50
2021,02,28,16,28,11.70
2021,02,28,16,29,11.60
2021,02,28,16,30,9.80
2021,02,28,16,31,11.10
2021,02,28,16,32,12.80
2021,02,28,16,33,11.60
2021,02,28,16,34,12.80
2021,02,28,16,35,10.10
2021,02,28,16,36,8.80
2021,02,28,16,37,12.20
2021,02,28,16,38,11.90
2021,02,28,16,39,11.90
2021,02,28,16,40,12.40
2021,02,28,16,41,10.60
2021,02,28,16,42,9.00
2021,02,28,16,43,12.00
2021,02,28,16,44,10.60
2021,02,28,16,45,11.10
2021,02,28,16,46,10.30
2021,02,28,16,47,11.00
2021,02,28,16,48,14.60
2021,02,28,16,49,16.10
2021,02,28,16,50,16.10
2021,02,28,16,51,12.90
2021,02,28,16,52,10.90
2021,02,28,16,53,12.10
2021,02,28,16,54,11.30
2021,02,28,16,55,10.90
2021,02,28,16,56,10.20
2021,02,28,16,57,8.80
2021,02,28,16,58,10.10
2021,02,28,16,59,11.20
2021,02,28,17,00,9.10
2021,02,28,17,01,9.70
2021,02,28,17,02,9.10
2021,02,28,17,03,12.30
2021,02,28,17,04,9.30
2021,02,28,17,05,11.10
2021,02,28,17,06,11.10
2021,02,28,17,07,11.80
2021,02,28,17,08,11.70
2021,02,28,17,09,9.20
2021,02,28,17,10,10.60
2021,02,28,17,11,8.50
2021,02,28,17,12,7.50
2021,02,28,17,13,10.00
2021,02,28,17,14,10.20
2021,02,28,17,15,11.10
2021,02,28,17,16,11.50
2021,02,28,17,17,11.90
2021,02,28,17,18,10.20
2021,02,28,17,19,11.90
2021,02,28,17,20,9.80
2021,02,28,17,21,10.80
2021,02,28,17,22,10.10
2021,02,28,17,23,9.20
2021,02,28,17,24,7.80
2021,02,28,17,25,10.50
2021,02,28,17,26,6.90
2021,02,28,17,27,10.60
2021,02,28,17,28,8.30
2021,02,28,17,29,9.80
2021,02,28,17,30,9.70
2021,02,28,17,31,9.90
2021,02,28,17,32,10.00
2021,02,28,17,33,8.10
2021,02,28,17,34,8.20
2021,02,28,17,35,10.30
2021,02,28,17,36,10.40
2021,02,28,17,37,10.00